Tracking 30292 objects as of 28-Apr-2025
HD Live streaming from Space Station
objects crossing your sky now

COSMOS 1174

Track COSMOS 1174 now!
10-day predictions
COSMOS 1174 is classified as:


NORAD ID: 11765
Int'l Code: 1980-030A
Perigee: 371.8 km
Apogee: 1,067.4 km
Inclination: 66.1 °
Period: 99.0 minutes
Semi major axis: 7090 km
RCS: 4.5129 m2 (large)
Launch date: April 18, 1980
Source: Commonwealth of Independent States (former USSR) (CIS)
Launch site: TYURATAM MISSILE AND SPACE COMPLEX (TTMTR)
Your satellite tracking list
Your tracking list is empty




NASA's NSSDC Master Catalog

Two Line Element Set (TLE):
1 11765U 80030A   25118.55306879  .00005404  00000-0  24436-3 0  9996
2 11765  66.0811 310.1318 0490525   2.4964 357.8417 14.54046548321069
Source of the keplerian elements: AFSPC